Altoona, PA

1:05 AM EDT on October 23, 2019 (GMT -0400)
Altoona-Blair County

Weather History for KAOO - September, 2019

Change the Weather History Date:

Monday, September 16, 2019

  Actual Average Record
Temperature  
Mean Temperature 71 °F 62 °F  
Max Temperature 83 °F 72 °F 93 °F (1991)
Min Temperature 59 °F 51 °F 36 °F (2001)
Degree Days  
Heating Degree Days 0 5  
Month to date heating degree days 8 47  
Since 1 July heating degree days 17 79  
Cooling Degree Days 6 1  
Month to date cooling degree days 57 35  
Year to date cooling degree days 702 514  
Growing Degree Days 20 (Base 50)    
Moisture  
Dew Point 61 °F    
Average Humidity 72    
Maximum Humidity 93    
Minimum Humidity 51    
Precipitation  
Precipitation 0.03 in 0.12 in 1.29 in (1989)
Month to date precipitation 1.03 1.87  
Year to date precipitation 30.72 25.80  
Sea Level Pressure  
Sea Level Pressure 30.07 in    
Wind  
Wind Speed 3 mph (NNE)    
Max Wind Speed 10 mph    
Max Gust Speed 13 mph    
Visibility 9 miles    
Events Rain    
T = Trace of Precipitation, MM = Missing Value Source: NWS Daily Summary

Daily Weather History Graph

Daily Weather History Graph

Search for Another Location

Airport or City:

Astronomy

Sep. 16, 2019 Rise Set
Actual Time 6:54 AM EDT 7:20 PM EDT
Civil Twilight 6:27 AM EDT 7:48 PM EDT
Nautical Twilight 5:55 AM EDT 8:20 PM EDT
Astronomical Twilight 5:22 AM EDT 8:52 PM EDT
Moon 8:54 PM EDT (9/16) 9:00 AM EDT (9/16)
Length of Visible Light 13h 20m
Length of Day
12h 25m
Waning Gibbous, 94% of the Moon is Illuminated
Sep 16
Waning Gibbous
Sep 21
Last Quarter
Sep 28
New
Oct 5
First Quarter
Oct 13
Full

Hourly Weather History & Observations

Time (EDT) Temp. Heat Index Dew Point Humidity Pressure Visibility Wind Dir Wind Speed Gust Speed Precip Events Conditions
12:53 AM 64.0 °F - 59.0 °F 84% 30.11 in 10.0 mi Calm Calm - N/A   Overcast
1:53 AM 63.0 °F - 59.0 °F 87% 30.10 in 10.0 mi Calm Calm - N/A   Mostly Cloudy
2:53 AM 60.1 °F - 57.0 °F 90% 30.09 in 10.0 mi Calm Calm - N/A   Clear
3:53 AM 62.1 °F - 57.9 °F 86% 30.09 in 10.0 mi Calm Calm - N/A   Overcast
4:53 AM 60.1 °F - 57.0 °F 90% 30.09 in 10.0 mi Calm Calm - N/A   Clear
5:53 AM 61.0 °F - 57.9 °F 90% 30.09 in 9.0 mi Calm Calm - N/A   Overcast
6:53 AM 62.1 °F - 59.0 °F 90% 30.11 in 7.0 mi Calm Calm - 0.00 in Rain Light Rain
7:53 AM 63.0 °F - 60.1 °F 90% 30.12 in 5.0 mi Calm Calm - 0.00 in   Overcast
8:26 AM 62.1 °F - 59.0 °F 90% 30.11 in 2.5 mi SSE 6.9 mph - 0.03 in Rain Light Rain
8:37 AM 63.0 °F - 60.1 °F 90% 30.12 in 4.0 mi NNE 3.5 mph - 0.03 in Rain Light Rain
8:53 AM 63.0 °F - 60.1 °F 90% 30.12 in 9.0 mi WNW 3.5 mph - 0.03 in   Overcast
9:53 AM 66.9 °F - 62.1 °F 84% 30.11 in 10.0 mi SSW 5.8 mph - N/A   Partly Cloudy
10:53 AM 73.0 °F - 62.1 °F 68% 30.10 in 10.0 mi Calm Calm - N/A   Mostly Cloudy
11:53 AM 75.0 °F - 60.1 °F 60% 30.07 in 10.0 mi South 4.6 mph - N/A   Clear
12:53 PM 78.1 °F - 61.0 °F 56% 30.06 in 10.0 mi Variable 3.5 mph - N/A   Mostly Cloudy
1:53 PM 81.0 °F 81.7 °F 61.0 °F 50% 30.04 in 10.0 mi Calm Calm - N/A   Mostly Cloudy
2:53 PM 81.0 °F 81.7 °F 61.0 °F 50% 30.03 in 10.0 mi North 3.5 mph - N/A   Mostly Cloudy
3:53 PM 79.0 °F - 64.0 °F 60% 30.01 in 10.0 mi North 3.5 mph - N/A   Overcast
4:53 PM 79.0 °F - 64.0 °F 60% 30.01 in 10.0 mi Calm Calm - N/A   Overcast
5:53 PM 78.1 °F - 63.0 °F 60% 30.01 in 10.0 mi NNE 4.6 mph - N/A   Mostly Cloudy
6:53 PM 75.9 °F - 64.0 °F 67% 30.02 in 10.0 mi NE 4.6 mph - N/A   Mostly Cloudy
7:53 PM 73.0 °F - 64.0 °F 73% 30.03 in 10.0 mi NE 3.5 mph - N/A   Overcast
8:53 PM 70.0 °F - 64.0 °F 81% 30.04 in 10.0 mi NNE 5.8 mph - N/A   Scattered Clouds
9:53 PM 70.0 °F - 64.0 °F 81% 30.05 in 10.0 mi NE 4.6 mph - N/A   Mostly Cloudy
10:53 PM 70.0 °F - 62.1 °F 76% 30.06 in 10.0 mi NE 5.8 mph - N/A   Mostly Cloudy
11:53 PM 69.1 °F - 62.1 °F 78% 30.07 in 10.0 mi NNE 3.5 mph - N/A   Overcast